UFO 11 (USA 174)

Last updated on Nov. 18, 2019, 4:21 a.m. UTC

1 28117U 03057A   19320.93211919 -.00000092  00000-0  00000+0 0  9995
2 28117   5.8509  37.0917 0004405 258.6865 170.8613  1.00272666 58311
UTC
Height (km)
Latitude
Longitude
Inclination
Orbital Period
UTC large
Height (km)
Speed (km/s)
/
Latitude / Longitude
Inclination (degrees)
Orbital Period (minutes)
Azimuth
Elevation
Range (km)
Doppler Factor
iOS Compass Heading
iOS Angle

Next 30 passes for location: Hong Kong

Rise time Rise Azimuth (degrees) Set time Set Azimuth (degrees) Duration Max altitude (degrees)

No matching passes for this satellites